全球星 M080星 (GLOBALSTAR M080)

导读

GLOBALSTAR M080是Globalstar公司运营的低轨移动通信卫星,隶属于第二代M-CLASS卫星星座。该卫星于2011年12月28日发射,运行在约1414公里高度的近极地轨道。它主要提供语音和数据通信服务,支持偏远地区手持终端连接,提升了系统容量与可靠性,服务于应急通信、海上、航空等多应用场景,目前仍在轨运行。

基本信息
目录编号:
38041
目录名称:
GLOBALSTAR M080
国际标识:
2011-080B
轨道中心:
EARTH
卫星名称:
全球星 M080星
卫星全名:
全球星 M080星 (GLOBALSTAR M080)
卫星状态:
在轨 (已飞行5325 天)
发射日期:
2011-12-28 UTC
国别 :
(GLOB)
星等 :
--
轨道信息
数据来源 国际轨道数据 AOE轨道数据
星历时间 2026-07-27T11:20:13+0800
19小时前
查看轨道信息
2026-07-27T15:00:00+0800
15小时前
查看轨道信息
半长轴 7791.777km 7791.776km
偏心率 0.0000311 0.0000452
轨道倾角 52.005° 52.004°
近地点辐角 52.704° 36.667°
升交点赤经 257.390° 256.927°
平近点角 325.367° 315.282°
近地点 1413.397km 1413.286km
远地点 1413.883km 1413.992km
周期 114.081分钟 114.081分钟
每日圈数 12.622578 12.62258
详细信息
固有亮度:
5
最大亮度:
7.2
平衡模式:
三轴稳定
覆盖范围:
全球
运营商:
全球星公司
运营商所在国:
美国
使用方式:
暂无
卫星简介
全球星星座由48颗卫星加8颗备份星组成。这些卫星分布在8个倾角为52度的圆形轨道平面上,每个轨道平面6颗卫星,另有1 颗备用星。轨道高度约为1414km,传输时延和处理时延小于300ms,整个系统的覆盖区为南北纬70度以内的地区。该卫星仍在工作。
2D轨道图
3D轨道图
轨道高度分析图
轨道倾角分析图
轨道综合分析图
查看轨道综合分析图